Year,Month,Day,Hour,Minute,Value (Times are PST for insolation in W/m^2)
2017,05,15,00,00,0.00
2017,05,15,00,01,0.00
2017,05,15,00,02,0.00
2017,05,15,00,03,0.00
2017,05,15,00,04,0.00
2017,05,15,00,05,0.00
2017,05,15,00,06,0.00
2017,05,15,00,07,0.00
2017,05,15,00,08,0.00
2017,05,15,00,09,0.00
2017,05,15,00,10,0.00
2017,05,15,00,11,0.00
2017,05,15,00,12,0.00
2017,05,15,00,13,0.00
2017,05,15,00,14,0.00
2017,05,15,00,15,0.00
2017,05,15,00,16,0.00
2017,05,15,00,17,0.00
2017,05,15,00,18,0.00
2017,05,15,00,19,0.00
2017,05,15,00,20,0.00
2017,05,15,00,21,0.00
2017,05,15,00,22,0.00
2017,05,15,00,23,0.00
2017,05,15,00,24,0.00
2017,05,15,00,25,0.00
2017,05,15,00,26,0.00
2017,05,15,00,27,0.00
2017,05,15,00,28,0.00
2017,05,15,00,29,0.00
2017,05,15,00,30,0.00
2017,05,15,00,31,0.00
2017,05,15,00,32,0.00
2017,05,15,00,33,0.00
2017,05,15,00,34,0.00
2017,05,15,00,35,0.00
2017,05,15,00,36,0.00
2017,05,15,00,37,0.00
2017,05,15,00,38,0.00
2017,05,15,00,39,0.00
2017,05,15,00,40,0.00
2017,05,15,00,41,0.00
2017,05,15,00,42,0.00
2017,05,15,00,43,0.00
2017,05,15,00,44,0.00
2017,05,15,00,45,0.00
2017,05,15,00,46,0.00
2017,05,15,00,47,0.00
2017,05,15,00,48,0.00
2017,05,15,00,49,0.00
2017,05,15,00,50,0.00
2017,05,15,00,51,0.00
2017,05,15,00,52,0.00
2017,05,15,00,53,0.00
2017,05,15,00,54,0.00
2017,05,15,00,55,0.00
2017,05,15,00,56,0.00
2017,05,15,00,57,0.00
2017,05,15,00,58,0.00
2017,05,15,00,59,0.00
2017,05,15,01,00,0.00
2017,05,15,01,01,0.00
2017,05,15,01,02,0.00
2017,05,15,01,03,0.00
2017,05,15,01,04,0.00
2017,05,15,01,05,0.00
2017,05,15,01,06,0.00
2017,05,15,01,07,0.00
2017,05,15,01,08,0.00
2017,05,15,01,09,0.00
2017,05,15,01,10,0.00
2017,05,15,01,11,0.00
2017,05,15,01,12,0.00
2017,05,15,01,13,0.00
2017,05,15,01,14,0.00
2017,05,15,01,15,0.00
2017,05,15,01,16,0.00
2017,05,15,01,17,0.00
2017,05,15,01,18,0.00
2017,05,15,01,19,0.00
2017,05,15,01,20,0.00
2017,05,15,01,21,0.00
2017,05,15,01,22,0.00
2017,05,15,01,23,0.00
2017,05,15,01,24,0.00
2017,05,15,01,25,0.00
2017,05,15,01,26,0.00
2017,05,15,01,27,0.00
2017,05,15,01,28,0.00
2017,05,15,01,29,0.00
2017,05,15,01,30,0.00
2017,05,15,01,31,0.00
2017,05,15,01,32,0.00
2017,05,15,01,33,0.00
2017,05,15,01,34,0.00
2017,05,15,01,35,0.00
2017,05,15,01,36,0.00
2017,05,15,01,37,0.00
2017,05,15,01,38,0.00
2017,05,15,01,39,0.00
2017,05,15,01,40,0.00
2017,05,15,01,41,0.00
2017,05,15,01,42,0.00
2017,05,15,01,43,0.00
2017,05,15,01,44,0.00
2017,05,15,01,45,0.00
2017,05,15,01,46,0.00
2017,05,15,01,47,0.00
2017,05,15,01,48,0.00
2017,05,15,01,49,0.00
2017,05,15,01,50,0.00
2017,05,15,01,51,0.00
2017,05,15,01,52,0.00
2017,05,15,01,53,0.00
2017,05,15,01,54,0.00
2017,05,15,01,55,0.00
2017,05,15,01,56,0.00
2017,05,15,01,57,0.00
2017,05,15,01,58,0.00
2017,05,15,01,59,0.00
2017,05,15,02,00,0.00
2017,05,15,02,01,0.00
2017,05,15,02,02,0.00
2017,05,15,02,03,0.00
2017,05,15,02,04,0.00
2017,05,15,02,05,0.00
2017,05,15,02,06,0.00
2017,05,15,02,07,0.00
2017,05,15,02,08,0.00
2017,05,15,02,09,0.00
2017,05,15,02,10,0.00
2017,05,15,02,11,0.00
2017,05,15,02,12,0.00
2017,05,15,02,13,0.00
2017,05,15,02,14,0.00
2017,05,15,02,15,0.00
2017,05,15,02,16,0.00
2017,05,15,02,17,0.00
2017,05,15,02,18,0.00
2017,05,15,02,19,0.00
2017,05,15,02,20,0.00
2017,05,15,02,21,0.00
2017,05,15,02,22,0.00
2017,05,15,02,23,0.00
2017,05,15,02,24,0.00
2017,05,15,02,25,0.00
2017,05,15,02,26,0.00
2017,05,15,02,27,0.00
2017,05,15,02,28,0.00
2017,05,15,02,29,0.00
2017,05,15,02,30,0.00
2017,05,15,02,31,0.00
2017,05,15,02,32,0.00
2017,05,15,02,33,0.00
2017,05,15,02,34,0.00
2017,05,15,02,35,0.00
2017,05,15,02,36,0.00
2017,05,15,02,37,0.00
2017,05,15,02,38,0.00
2017,05,15,02,39,0.00
2017,05,15,02,40,0.00
2017,05,15,02,41,0.00
2017,05,15,02,42,0.00
2017,05,15,02,43,0.00
2017,05,15,02,44,0.00
2017,05,15,02,45,0.00
2017,05,15,02,46,0.00
2017,05,15,02,47,0.00
2017,05,15,02,48,0.00
2017,05,15,02,49,0.00
2017,05,15,02,50,0.00
2017,05,15,02,51,0.00
2017,05,15,02,52,0.00
2017,05,15,02,53,0.00
2017,05,15,02,54,0.00
2017,05,15,02,55,0.00
2017,05,15,02,56,0.00
2017,05,15,02,57,0.00
2017,05,15,02,58,0.00
2017,05,15,02,59,0.00
2017,05,15,03,00,0.00
2017,05,15,03,01,0.00
2017,05,15,03,02,0.00
2017,05,15,03,03,0.00
2017,05,15,03,04,0.00
2017,05,15,03,05,0.00
2017,05,15,03,06,0.00
2017,05,15,03,07,0.00
2017,05,15,03,08,0.00
2017,05,15,03,09,0.00
2017,05,15,03,10,0.00
2017,05,15,03,11,0.00
2017,05,15,03,12,0.00
2017,05,15,03,13,0.00
2017,05,15,03,14,0.00
2017,05,15,03,15,0.00
2017,05,15,03,16,0.00
2017,05,15,03,17,0.00
2017,05,15,03,18,0.00
2017,05,15,03,19,0.00
2017,05,15,03,20,0.00
2017,05,15,03,21,0.00
2017,05,15,03,22,0.00
2017,05,15,03,23,0.00
2017,05,15,03,24,0.00
2017,05,15,03,25,0.00
2017,05,15,03,26,0.00
2017,05,15,03,27,0.00
2017,05,15,03,28,0.00
2017,05,15,03,29,0.00
2017,05,15,03,30,0.00
2017,05,15,03,31,0.00
2017,05,15,03,32,0.00
2017,05,15,03,33,0.00
2017,05,15,03,34,0.00
2017,05,15,03,35,0.00
2017,05,15,03,36,0.00
2017,05,15,03,37,0.00
2017,05,15,03,38,0.00
2017,05,15,03,39,0.00
2017,05,15,03,40,0.00
2017,05,15,03,41,0.00
2017,05,15,03,42,0.00
2017,05,15,03,43,0.00
2017,05,15,03,44,0.00
2017,05,15,03,45,0.00
2017,05,15,03,46,0.00
2017,05,15,03,47,0.00
2017,05,15,03,48,0.00
2017,05,15,03,49,0.00
2017,05,15,03,50,0.00
2017,05,15,03,51,0.00
2017,05,15,03,52,0.00
2017,05,15,03,53,0.00
2017,05,15,03,54,0.00
2017,05,15,03,55,0.00
2017,05,15,03,56,0.00
2017,05,15,03,57,0.00
2017,05,15,03,58,0.00
2017,05,15,03,59,0.00
2017,05,15,04,00,0.00
2017,05,15,04,01,0.00
2017,05,15,04,02,0.00
2017,05,15,04,03,0.00
2017,05,15,04,04,0.00
2017,05,15,04,05,0.00
2017,05,15,04,06,0.00
2017,05,15,04,07,0.00
2017,05,15,04,08,0.00
2017,05,15,04,09,0.00
2017,05,15,04,10,0.00
2017,05,15,04,11,0.00
2017,05,15,04,12,0.00
2017,05,15,04,13,0.00
2017,05,15,04,14,0.00
2017,05,15,04,15,0.00
2017,05,15,04,16,0.00
2017,05,15,04,17,0.00
2017,05,15,04,18,0.00
2017,05,15,04,19,0.00
2017,05,15,04,20,0.00
2017,05,15,04,21,0.00
2017,05,15,04,22,0.00
2017,05,15,04,23,0.00
2017,05,15,04,24,0.00
2017,05,15,04,25,0.00
2017,05,15,04,26,0.00
2017,05,15,04,27,0.00
2017,05,15,04,28,0.00
2017,05,15,04,29,0.00
2017,05,15,04,30,0.00
2017,05,15,04,31,0.00
2017,05,15,04,32,0.00
2017,05,15,04,33,0.00
2017,05,15,04,34,0.00
2017,05,15,04,35,0.00
2017,05,15,04,36,0.00
2017,05,15,04,37,0.00
2017,05,15,04,38,0.00
2017,05,15,04,39,0.00
2017,05,15,04,40,0.00
2017,05,15,04,41,0.00
2017,05,15,04,42,0.00
2017,05,15,04,43,0.00
2017,05,15,04,44,0.00
2017,05,15,04,45,0.00
2017,05,15,04,46,0.00
2017,05,15,04,47,0.00
2017,05,15,04,48,0.00
2017,05,15,04,49,0.00
2017,05,15,04,50,0.00
2017,05,15,04,51,0.00
2017,05,15,04,52,0.00
2017,05,15,04,53,0.00
2017,05,15,04,54,0.00
2017,05,15,04,55,0.00
2017,05,15,04,56,0.00
2017,05,15,04,57,0.00
2017,05,15,04,58,0.00
2017,05,15,04,59,0.00
2017,05,15,05,00,0.00
2017,05,15,05,01,0.00
2017,05,15,05,02,0.00
2017,05,15,05,03,0.00
2017,05,15,05,04,0.00
2017,05,15,05,05,0.00
2017,05,15,05,06,0.00
2017,05,15,05,07,0.00
2017,05,15,05,08,0.00
2017,05,15,05,09,0.00
2017,05,15,05,10,0.00
2017,05,15,05,11,0.00
2017,05,15,05,12,0.00
2017,05,15,05,13,0.00
2017,05,15,05,14,0.00
2017,05,15,05,15,0.00
2017,05,15,05,16,0.00
2017,05,15,05,17,0.00
2017,05,15,05,18,0.00
2017,05,15,05,19,0.00
2017,05,15,05,20,0.00
2017,05,15,05,21,0.00
2017,05,15,05,22,0.00
2017,05,15,05,23,0.00
2017,05,15,05,24,0.00
2017,05,15,05,25,0.00
2017,05,15,05,26,0.00
2017,05,15,05,27,0.00
2017,05,15,05,28,0.00
2017,05,15,05,29,0.00
2017,05,15,05,30,0.00
2017,05,15,05,31,0.00
2017,05,15,05,32,0.00
2017,05,15,05,33,0.00
2017,05,15,05,34,0.00
2017,05,15,05,35,0.00
2017,05,15,05,36,0.00
2017,05,15,05,37,0.00
2017,05,15,05,38,2.20
2017,05,15,05,39,5.00
2017,05,15,05,40,5.00
2017,05,15,05,41,5.00
2017,05,15,05,42,5.80
2017,05,15,05,43,7.00
2017,05,15,05,44,7.00
2017,05,15,05,45,7.90
2017,05,15,05,46,9.00
2017,05,15,05,47,9.00
2017,05,15,05,48,9.80
2017,05,15,05,49,11.00
2017,05,15,05,50,11.40
2017,05,15,05,51,12.00
2017,05,15,05,52,12.90
2017,05,15,05,53,14.00
2017,05,15,05,54,14.90
2017,05,15,05,55,16.00
2017,05,15,05,56,16.90
2017,05,15,05,57,18.50
2017,05,15,05,58,20.70
2017,05,15,05,59,23.90
2017,05,15,06,00,26.30
2017,05,15,06,01,29.70
2017,05,15,06,02,32.50
2017,05,15,06,03,34.80
2017,05,15,06,04,37.90
2017,05,15,06,05,40.30
2017,05,15,06,06,42.90
2017,05,15,06,07,45.30
2017,05,15,06,08,48.80
2017,05,15,06,09,52.30
2017,05,15,06,10,56.70
2017,05,15,06,11,62.20
2017,05,15,06,12,67.20
2017,05,15,06,13,71.80
2017,05,15,06,14,73.20
2017,05,15,06,15,71.20
2017,05,15,06,16,68.70
2017,05,15,06,17,66.20
2017,05,15,06,18,63.80
2017,05,15,06,19,61.10
2017,05,15,06,20,58.30
2017,05,15,06,21,55.10
2017,05,15,06,22,53.50
2017,05,15,06,23,52.10
2017,05,15,06,24,50.10
2017,05,15,06,25,49.90
2017,05,15,06,26,51.90
2017,05,15,06,27,56.20
2017,05,15,06,28,56.80
2017,05,15,06,29,50.50
2017,05,15,06,30,47.00
2017,05,15,06,31,46.60
2017,05,15,06,32,46.00
2017,05,15,06,33,46.00
2017,05,15,06,34,46.40
2017,05,15,06,35,47.00
2017,05,15,06,36,47.90
2017,05,15,06,37,49.80
2017,05,15,06,38,51.90
2017,05,15,06,39,53.00
2017,05,15,06,40,53.00
2017,05,15,06,41,53.00
2017,05,15,06,42,53.00
2017,05,15,06,43,52.10
2017,05,15,06,44,51.00
2017,05,15,06,45,51.00
2017,05,15,06,46,50.10
2017,05,15,06,47,49.00
2017,05,15,06,48,49.90
2017,05,15,06,49,51.00
2017,05,15,06,50,51.00
2017,05,15,06,51,51.90
2017,05,15,06,52,53.50
2017,05,15,06,53,54.90
2017,05,15,06,54,57.80
2017,05,15,06,55,60.90
2017,05,15,06,56,62.50
2017,05,15,06,57,64.80
2017,05,15,06,58,67.90
2017,05,15,06,59,70.30
2017,05,15,07,00,73.80
2017,05,15,07,01,76.40
2017,05,15,07,02,77.90
2017,05,15,07,03,79.80
2017,05,15,07,04,82.30
2017,05,15,07,05,84.90
2017,05,15,07,06,87.80
2017,05,15,07,07,90.40
2017,05,15,07,08,91.90
2017,05,15,07,09,92.10
2017,05,15,07,10,89.70
2017,05,15,07,11,86.20
2017,05,15,07,12,81.80
2017,05,15,07,13,77.70
2017,05,15,07,14,73.30
2017,05,15,07,15,69.60
2017,05,15,07,16,69.00
2017,05,15,07,17,69.00
2017,05,15,07,18,69.00
2017,05,15,07,19,69.00
2017,05,15,07,20,68.20
2017,05,15,07,21,65.30
2017,05,15,07,22,62.50
2017,05,15,07,23,61.10
2017,05,15,07,24,58.20
2017,05,15,07,25,55.10
2017,05,15,07,26,54.00
2017,05,15,07,27,54.90
2017,05,15,07,28,56.00
2017,05,15,07,29,56.90
2017,05,15,07,30,58.00
2017,05,15,07,31,58.00
2017,05,15,07,32,58.80
2017,05,15,07,33,60.80
2017,05,15,07,34,62.40
2017,05,15,07,35,63.80
2017,05,15,07,36,66.70
2017,05,15,07,37,71.10
2017,05,15,07,38,77.90
2017,05,15,07,39,86.60
2017,05,15,07,40,95.10
2017,05,15,07,41,103.20
2017,05,15,07,42,110.20
2017,05,15,07,43,117.20
2017,05,15,07,44,122.80
2017,05,15,07,45,124.10
2017,05,15,07,46,122.10
2017,05,15,07,47,119.70
2017,05,15,07,48,117.20
2017,05,15,07,49,114.00
2017,05,15,07,50,111.00
2017,05,15,07,51,111.00
2017,05,15,07,52,111.80
2017,05,15,07,53,113.40
2017,05,15,07,54,114.00
2017,05,15,07,55,113.60
2017,05,15,07,56,113.00
2017,05,15,07,57,113.00
2017,05,15,07,58,112.10
2017,05,15,07,59,110.10
2017,05,15,08,00,108.10
2017,05,15,08,01,106.10
2017,05,15,08,02,105.00
2017,05,15,08,03,104.60
2017,05,15,08,04,103.20
2017,05,15,08,05,102.00
2017,05,15,08,06,102.00
2017,05,15,08,07,102.00
2017,05,15,08,08,102.90
2017,05,15,08,09,104.40
2017,05,15,08,10,105.00
2017,05,15,08,11,103.70
2017,05,15,08,12,101.10
2017,05,15,08,13,98.70
2017,05,15,08,14,96.10
2017,05,15,08,15,94.10
2017,05,15,08,16,93.00
2017,05,15,08,17,93.00
2017,05,15,08,18,94.80
2017,05,15,08,19,98.30
2017,05,15,08,20,100.80
2017,05,15,08,21,102.90
2017,05,15,08,22,103.20
2017,05,15,08,23,100.00
2017,05,15,08,24,94.00
2017,05,15,08,25,87.50
2017,05,15,08,26,81.90
2017,05,15,08,27,77.70
2017,05,15,08,28,75.10
2017,05,15,08,29,73.10
2017,05,15,08,30,72.90
2017,05,15,08,31,74.90
2017,05,15,08,32,76.40
2017,05,15,08,33,77.90
2017,05,15,08,34,80.80
2017,05,15,08,35,84.30
2017,05,15,08,36,87.60
2017,05,15,08,37,92.00
2017,05,15,08,38,96.30
2017,05,15,08,39,99.80
2017,05,15,08,40,103.30
2017,05,15,08,41,105.90
2017,05,15,08,42,107.90
2017,05,15,08,43,110.80
2017,05,15,08,44,113.40
2017,05,15,08,45,116.70
2017,05,15,08,46,121.30
2017,05,15,08,47,126.20
2017,05,15,08,48,133.10
2017,05,15,08,49,138.80
2017,05,15,08,50,142.40
2017,05,15,08,51,143.20
2017,05,15,08,52,140.70
2017,05,15,08,53,137.20
2017,05,15,08,54,133.60
2017,05,15,08,55,131.10
2017,05,15,08,56,129.10
2017,05,15,08,57,128.00
2017,05,15,08,58,128.00
2017,05,15,08,59,128.90
2017,05,15,09,00,130.00
2017,05,15,09,01,130.90
2017,05,15,09,02,132.90
2017,05,15,09,03,136.20
2017,05,15,09,04,140.40
2017,05,15,09,05,142.90
2017,05,15,09,06,144.00
2017,05,15,09,07,143.20
2017,05,15,09,08,140.70
2017,05,15,09,09,138.20
2017,05,15,09,10,137.00
2017,05,15,09,11,137.90
2017,05,15,09,12,141.10
2017,05,15,09,13,146.10
2017,05,15,09,14,150.80
2017,05,15,09,15,155.20
2017,05,15,09,16,159.80
2017,05,15,09,17,165.10
2017,05,15,09,18,171.20
2017,05,15,09,19,176.20
2017,05,15,09,20,181.70
2017,05,15,09,21,186.40
2017,05,15,09,22,188.80
2017,05,15,09,23,190.80
2017,05,15,09,24,192.40
2017,05,15,09,25,193.80
2017,05,15,09,26,195.90
2017,05,15,09,27,197.80
2017,05,15,09,28,199.40
2017,05,15,09,29,200.90
2017,05,15,09,30,203.80
2017,05,15,09,31,208.20
2017,05,15,09,32,214.10
2017,05,15,09,33,221.10
2017,05,15,09,34,229.10
2017,05,15,09,35,238.10
2017,05,15,09,36,246.60
2017,05,15,09,37,255.90
2017,05,15,09,38,266.50
2017,05,15,09,39,275.80
2017,05,15,09,40,284.60
2017,05,15,09,41,292.10
2017,05,15,09,42,296.70
2017,05,15,09,43,303.30
2017,05,15,09,44,314.90
2017,05,15,09,45,329.60
2017,05,15,09,46,341.70
2017,05,15,09,47,350.40
2017,05,15,09,48,367.40
2017,05,15,09,49,364.70
2017,05,15,09,50,337.50
2017,05,15,09,51,323.00
2017,05,15,09,52,317.10
2017,05,15,09,53,316.00
2017,05,15,09,54,316.00
2017,05,15,09,55,321.20
2017,05,15,09,56,332.60
2017,05,15,09,57,345.60
2017,05,15,09,58,367.30
2017,05,15,09,59,370.20
2017,05,15,10,00,352.00
2017,05,15,10,01,343.80
2017,05,15,10,02,335.60
2017,05,15,10,03,326.30
2017,05,15,10,04,322.50
2017,05,15,10,05,320.20
2017,05,15,10,06,315.80
2017,05,15,10,07,310.80
2017,05,15,10,08,307.10
2017,05,15,10,09,306.00
2017,05,15,10,10,306.00
2017,05,15,10,11,305.20
2017,05,15,10,12,303.20
2017,05,15,10,13,300.80
2017,05,15,10,14,297.30
2017,05,15,10,15,292.80
2017,05,15,10,16,286.00
2017,05,15,10,17,276.50
2017,05,15,10,18,267.00
2017,05,15,10,19,258.00
2017,05,15,10,20,250.80
2017,05,15,10,21,246.20
2017,05,15,10,22,243.60
2017,05,15,10,23,240.30
2017,05,15,10,24,234.80
2017,05,15,10,25,229.10
2017,05,15,10,26,222.00
2017,05,15,10,27,217.20
2017,05,15,10,28,216.00
2017,05,15,10,29,216.90
2017,05,15,10,30,218.90
2017,05,15,10,31,221.40
2017,05,15,10,32,225.70
2017,05,15,10,33,232.60
2017,05,15,10,34,241.90
2017,05,15,10,35,252.10
2017,05,15,10,36,260.10
2017,05,15,10,37,266.20
2017,05,15,10,38,269.90
2017,05,15,10,39,271.00
2017,05,15,10,40,268.30
2017,05,15,10,41,262.80
2017,05,15,10,42,257.90
2017,05,15,10,43,253.30
2017,05,15,10,44,247.90
2017,05,15,10,45,241.10
2017,05,15,10,46,234.00
2017,05,15,10,47,227.80
2017,05,15,10,48,225.00
2017,05,15,10,49,225.00
2017,05,15,10,50,225.00
2017,05,15,10,51,225.00
2017,05,15,10,52,225.00
2017,05,15,10,53,223.20
2017,05,15,10,54,220.60
2017,05,15,10,55,220.40
2017,05,15,10,56,222.80
2017,05,15,10,57,227.10
2017,05,15,10,58,232.40
2017,05,15,10,59,239.00
2017,05,15,11,00,246.60
2017,05,15,11,01,255.10
2017,05,15,11,02,261.80
2017,05,15,11,03,263.10
2017,05,15,11,04,258.00
2017,05,15,11,05,248.90
2017,05,15,11,06,240.90
2017,05,15,11,07,234.80
2017,05,15,11,08,231.10
2017,05,15,11,09,228.60
2017,05,15,11,10,227.00
2017,05,15,11,11,227.00
2017,05,15,11,12,227.00
2017,05,15,11,13,226.20
2017,05,15,11,14,223.30
2017,05,15,11,15,218.90
2017,05,15,11,16,213.90
2017,05,15,11,17,209.20
2017,05,15,11,18,207.00
2017,05,15,11,19,206.60
2017,05,15,11,20,206.00
2017,05,15,11,21,206.00
2017,05,15,11,22,204.20
2017,05,15,11,23,198.90
2017,05,15,11,24,193.60
2017,05,15,11,25,192.40
2017,05,15,11,26,195.70
2017,05,15,11,27,199.00
2017,05,15,11,28,197.30
2017,05,15,11,29,192.90
2017,05,15,11,30,188.30
2017,05,15,11,31,185.60
2017,05,15,11,32,185.00
2017,05,15,11,33,185.00
2017,05,15,11,34,184.10
2017,05,15,11,35,182.10
2017,05,15,11,36,180.10
2017,05,15,11,37,178.60
2017,05,15,11,38,177.10
2017,05,15,11,39,176.90
2017,05,15,11,40,178.40
2017,05,15,11,41,179.90
2017,05,15,11,42,181.00
2017,05,15,11,43,179.60
2017,05,15,11,44,176.30
2017,05,15,11,45,173.20
2017,05,15,11,46,172.00
2017,05,15,11,47,172.00
2017,05,15,11,48,173.70
2017,05,15,11,49,178.20
2017,05,15,11,50,183.20
2017,05,15,11,51,186.90
2017,05,15,11,52,188.00
2017,05,15,11,53,188.00
2017,05,15,11,54,188.00
2017,05,15,11,55,188.90
2017,05,15,11,56,192.20
2017,05,15,11,57,196.80
2017,05,15,11,58,199.00
2017,05,15,11,59,197.30
2017,05,15,12,00,193.80
2017,05,15,12,01,189.60
2017,05,15,12,02,184.00
2017,05,15,12,03,180.10
2017,05,15,12,04,179.00
2017,05,15,12,05,178.60
2017,05,15,12,06,177.10
2017,05,15,12,07,175.10
2017,05,15,12,08,174.00
2017,05,15,12,09,174.00
2017,05,15,12,10,174.90
2017,05,15,12,11,177.40
2017,05,15,12,12,180.80
2017,05,15,12,13,185.20
2017,05,15,12,14,190.20
2017,05,15,12,15,195.50
2017,05,15,12,16,203.00
2017,05,15,12,17,213.40
2017,05,15,12,18,223.90
2017,05,15,12,19,231.10
2017,05,15,12,20,232.30
2017,05,15,12,21,228.60
2017,05,15,12,22,226.10
2017,05,15,12,23,224.10
2017,05,15,12,24,221.60
2017,05,15,12,25,218.20
2017,05,15,12,26,213.80
2017,05,15,12,27,209.20
2017,05,15,12,28,203.90
2017,05,15,12,29,199.60
2017,05,15,12,30,199.00
2017,05,15,12,31,199.00
2017,05,15,12,32,199.40
2017,05,15,12,33,200.80
2017,05,15,12,34,201.10
2017,05,15,12,35,200.90
2017,05,15,12,36,201.20
2017,05,15,12,37,199.60
2017,05,15,12,38,197.20
2017,05,15,12,39,194.10
2017,05,15,12,40,193.00
2017,05,15,12,41,194.80
2017,05,15,12,42,198.40
2017,05,15,12,43,200.00
2017,05,15,12,44,197.80
2017,05,15,12,45,195.00
2017,05,15,12,46,195.00
2017,05,15,12,47,195.80
2017,05,15,12,48,197.90
2017,05,15,12,49,199.40
2017,05,15,12,50,200.90
2017,05,15,12,51,204.10
2017,05,15,12,52,209.80
2017,05,15,12,53,217.00
2017,05,15,12,54,222.80
2017,05,15,12,55,224.10
2017,05,15,12,56,222.10
2017,05,15,12,57,221.90
2017,05,15,12,58,223.00
2017,05,15,12,59,224.80
2017,05,15,13,00,227.00
2017,05,15,13,01,227.00
2017,05,15,13,02,227.00
2017,05,15,13,03,227.00
2017,05,15,13,04,227.00
2017,05,15,13,05,227.90
2017,05,15,13,06,230.40
2017,05,15,13,07,233.80
2017,05,15,13,08,237.40
2017,05,15,13,09,239.90
2017,05,15,13,10,241.00
2017,05,15,13,11,241.00
2017,05,15,13,12,241.90
2017,05,15,13,13,243.40
2017,05,15,13,14,245.80
2017,05,15,13,15,250.20
2017,05,15,13,16,256.10
2017,05,15,13,17,261.80
2017,05,15,13,18,266.10
2017,05,15,13,19,269.80
2017,05,15,13,20,271.40
2017,05,15,13,21,272.00
2017,05,15,13,22,272.00
2017,05,15,13,23,272.00
2017,05,15,13,24,272.00
2017,05,15,13,25,272.90
2017,05,15,13,26,274.00
2017,05,15,13,27,272.60
2017,05,15,13,28,269.20
2017,05,15,13,29,265.60
2017,05,15,13,30,263.10
2017,05,15,13,31,260.20
2017,05,15,13,32,256.60
2017,05,15,13,33,253.20
2017,05,15,13,34,250.60
2017,05,15,13,35,250.40
2017,05,15,13,36,252.60
2017,05,15,13,37,255.00
2017,05,15,13,38,257.20
2017,05,15,13,39,262.20
2017,05,15,13,40,268.10
2017,05,15,13,41,276.00
2017,05,15,13,42,283.70
2017,05,15,13,43,289.20
2017,05,15,13,44,293.40
2017,05,15,13,45,295.90
2017,05,15,13,46,297.00
2017,05,15,13,47,296.10
2017,05,15,13,48,292.80
2017,05,15,13,49,287.80
2017,05,15,13,50,282.10
2017,05,15,13,51,275.60
2017,05,15,13,52,270.70
2017,05,15,13,53,267.30
2017,05,15,13,54,265.00
2017,05,15,13,55,263.70
2017,05,15,13,56,262.00
2017,05,15,13,57,262.90
2017,05,15,13,58,265.40
2017,05,15,13,59,268.80
2017,05,15,14,00,271.50
2017,05,15,14,01,272.90
2017,05,15,14,02,274.00
2017,05,15,14,03,274.00
2017,05,15,14,04,273.10
2017,05,15,14,05,270.70
2017,05,15,14,06,267.40
2017,05,15,14,07,263.80
2017,05,15,14,08,262.00
2017,05,15,14,09,260.30
2017,05,15,14,10,256.70
2017,05,15,14,11,253.30
2017,05,15,14,12,248.80
2017,05,15,14,13,244.70
2017,05,15,14,14,242.10
2017,05,15,14,15,240.10
2017,05,15,14,16,239.00
2017,05,15,14,17,239.00
2017,05,15,14,18,238.10
2017,05,15,14,19,236.60
2017,05,15,14,20,234.20
2017,05,15,14,21,230.70
2017,05,15,14,22,227.30
2017,05,15,14,23,223.30
2017,05,15,14,24,219.80
2017,05,15,14,25,216.30
2017,05,15,14,26,212.70
2017,05,15,14,27,209.30
2017,05,15,14,28,205.60
2017,05,15,14,29,202.20
2017,05,15,14,30,198.60
2017,05,15,14,31,195.20
2017,05,15,14,32,191.60
2017,05,15,14,33,188.20
2017,05,15,14,34,185.60
2017,05,15,14,35,183.20
2017,05,15,14,36,180.10
2017,05,15,14,37,179.00
2017,05,15,14,38,178.60
2017,05,15,14,39,178.00
2017,05,15,14,40,177.10
2017,05,15,14,41,175.20
2017,05,15,14,42,174.00
2017,05,15,14,43,174.00
2017,05,15,14,44,174.90
2017,05,15,14,45,176.00
2017,05,15,14,46,176.00
2017,05,15,14,47,176.00
2017,05,15,14,48,175.10
2017,05,15,14,49,172.60
2017,05,15,14,50,168.30
2017,05,15,14,51,162.80
2017,05,15,14,52,157.10
2017,05,15,14,53,151.00
2017,05,15,14,54,145.60
2017,05,15,14,55,140.70
2017,05,15,14,56,137.30
2017,05,15,14,57,134.60
2017,05,15,14,58,133.20
2017,05,15,14,59,132.00
2017,05,15,15,00,132.90
2017,05,15,15,01,134.40
2017,05,15,15,02,135.90
2017,05,15,15,03,136.10
2017,05,15,15,04,135.00
2017,05,15,15,05,134.60
2017,05,15,15,06,133.10
2017,05,15,15,07,130.20
2017,05,15,15,08,126.70
2017,05,15,15,09,124.20
2017,05,15,15,10,123.00
2017,05,15,15,11,124.70
2017,05,15,15,12,127.00
2017,05,15,15,13,127.00
2017,05,15,15,14,127.00
2017,05,15,15,15,127.40
2017,05,15,15,16,128.90
2017,05,15,15,17,130.00
2017,05,15,15,18,129.10
2017,05,15,15,19,127.60
2017,05,15,15,20,127.00
2017,05,15,15,21,127.00
2017,05,15,15,22,127.00
2017,05,15,15,23,127.00
2017,05,15,15,24,127.40
2017,05,15,15,25,128.90
2017,05,15,15,26,132.10
2017,05,15,15,27,136.70
2017,05,15,15,28,140.30
2017,05,15,15,29,144.60
2017,05,15,15,30,150.20
2017,05,15,15,31,155.20
2017,05,15,15,32,159.80
2017,05,15,15,33,164.20
2017,05,15,15,34,168.80
2017,05,15,15,35,171.40
2017,05,15,15,36,174.70
2017,05,15,15,37,179.40
2017,05,15,15,38,182.80
2017,05,15,15,39,186.40
2017,05,15,15,40,188.00
2017,05,15,15,41,187.10
2017,05,15,15,42,185.60
2017,05,15,15,43,184.20
2017,05,15,15,44,182.10
2017,05,15,15,45,180.20
2017,05,15,15,46,178.60
2017,05,15,15,47,177.10
2017,05,15,15,48,175.10
2017,05,15,15,49,173.10
2017,05,15,15,50,169.80
2017,05,15,15,51,163.90
2017,05,15,15,52,157.80
2017,05,15,15,53,153.20
2017,05,15,15,54,150.10
2017,05,15,15,55,149.80
2017,05,15,15,56,153.00
2017,05,15,15,57,157.60
2017,05,15,15,58,161.30
2017,05,15,15,59,164.80
2017,05,15,16,00,167.00
2017,05,15,16,01,167.00
2017,05,15,16,02,166.10
2017,05,15,16,03,163.60
2017,05,15,16,04,159.30
2017,05,15,16,05,152.90
2017,05,15,16,06,147.60
2017,05,15,16,07,144.20
2017,05,15,16,08,142.90
2017,05,15,16,09,144.00
2017,05,15,16,10,144.00
2017,05,15,16,11,144.00
2017,05,15,16,12,144.00
2017,05,15,16,13,142.70
2017,05,15,16,14,140.20
2017,05,15,16,15,137.30
2017,05,15,16,16,132.90
2017,05,15,16,17,127.90
2017,05,15,16,18,123.20
2017,05,15,16,19,120.60
2017,05,15,16,20,120.00
2017,05,15,16,21,120.00
2017,05,15,16,22,120.00
2017,05,15,16,23,120.00
2017,05,15,16,24,120.40
2017,05,15,16,25,121.00
2017,05,15,16,26,119.70
2017,05,15,16,27,117.20
2017,05,15,16,28,114.80
2017,05,15,16,29,112.10
2017,05,15,16,30,109.30
2017,05,15,16,31,106.10
2017,05,15,16,32,105.00
2017,05,15,16,33,105.90
2017,05,15,16,34,109.70
2017,05,15,16,35,114.30
2017,05,15,16,36,116.00
2017,05,15,16,37,116.00
2017,05,15,16,38,116.90
2017,05,15,16,39,118.00
2017,05,15,16,40,119.30
2017,05,15,16,41,122.80
2017,05,15,16,42,128.10
2017,05,15,16,43,135.10
2017,05,15,16,44,140.30
2017,05,15,16,45,143.70
2017,05,15,16,46,146.80
2017,05,15,16,47,148.00
2017,05,15,16,48,148.00
2017,05,15,16,49,147.10
2017,05,15,16,50,144.20
2017,05,15,16,51,140.60
2017,05,15,16,52,138.10
2017,05,15,16,53,135.60
2017,05,15,16,54,132.20
2017,05,15,16,55,128.60
2017,05,15,16,56,126.10
2017,05,15,16,57,123.20
2017,05,15,16,58,120.60
2017,05,15,16,59,120.00
2017,05,15,17,00,119.10
2017,05,15,17,01,118.00
2017,05,15,17,02,118.00
2017,05,15,17,03,117.10
2017,05,15,17,04,115.10
2017,05,15,17,05,113.60
2017,05,15,17,06,112.10
2017,05,15,17,07,110.10
2017,05,15,17,08,109.90
2017,05,15,17,09,111.90
2017,05,15,17,10,114.30